Location: Hopewell Observatory
(38.8698°N, 77.6988°W)
Time: 18:24:17
(UTC-04:00)

Daily predictions for brighter satellites

Satellite Brightness Start Highest point End
(mag) Time Altitude Azimuth Time Altitude Azimuth Time Altitude Azimuth
Cosmos 1937 Rocket 4.2 19:49:50 10° SSW 19:55:01 62° WNW 20:00:17 10° NNE
CZ-3B DEB 3.7 19:46:37 10° SW 19:59:19 64° NW 20:05:02 10° NE
Cosmos 1934 Rocket 3.9 19:53:16 10° S 19:59:23 77° E 20:05:27 10° N
Cosmos 1953 3.3 19:56:28 10° SSE 19:59:55 27° E 20:03:23 10° NNE
GPS 2-05 Rocket1 3.9 19:56:55 10° SW 20:00:07 32° SSE 20:03:21 10° E
SL-27 R/B 2.6 19:58:48 10° NNW 20:02:24 81° WSW 20:06:01 10° SSE
Helios 1B rocket 3.9 20:00:25 10° NE 20:03:09 17° E 20:05:52 10° SE
Okean 3 Rocket 3.9 19:59:50 10° N 20:04:02 43° E 20:08:15 10° SSE
Cosmos 1766 3.3 20:02:58 10° S 20:06:51 85° WNW 20:10:45 10° N
Cosmos 1076 Rocket 4.3 20:05:01 10° NNE 20:08:47 30° ENE 20:12:32 10° SE
Lacrosse 4 Rocket 4.2 20:05:51 10° WSW 20:08:52 20° NW 20:11:55 10° N
Cosmos 1812 Rocket 4.3 20:07:42 10° SSW 20:12:02 58° W 20:16:22 10° N
Abrixas 2.6 20:10:49 10° NW 20:13:36 51° NNE 20:15:43 15° ESE
Cosmos 1674 4.0 20:11:04 10° NNE 20:14:00 21° ENE 20:16:31 12° ESE
Tiangong 1 2.5 20:11:59 10° W 20:14:34 28° SSW 20:17:08 10° SSE
Cosmos 1818 3.7 20:13:39 10° NNW 20:19:03 59° ENE 20:24:23 10° SE
Helios 1A 4.0 20:16:30 11° SE 20:19:56 27° ENE 20:23:29 10° N
Lacrosse 5 rocket 3.0 20:17:29 10° NNW 20:20:19 18° NNE 20:22:31 12° ENE
COSMOS 2487 3.5 20:17:40 10° N 20:20:48 28° ENE 20:22:57 16° ESE
Cosmos 1269 Rocket 4.4 20:17:44 10° N 20:22:47 44° ENE 20:27:47 10° SE
ISS -3.4 20:24:07 10° SSW 20:27:12 41° SE 20:29:21 17° ENE
Cosmos 468 4.5 20:23:09 10° NNW 20:28:24 73° ENE 20:33:37 10° SSE
In-Cosmos 22 4.1 20:23:53 10° N 20:29:13 86° W 20:34:29 10° S
GP-B 3.7 20:25:22 10° SSE 20:29:25 36° E 20:33:30 10° NNE
Cosmos 1766 Rocket 4.1 20:25:42 10° N 20:29:54 38° ENE 20:33:47 12° SE
Cosmos 372 Rocket 4.0 20:25:04 10° S 20:30:00 54° ESE 20:35:02 10° NNE
Cosmos 2344 4.3 20:23:39 10° SW 20:31:10 59° NW 20:39:40 10° NNE
USA 186 1.9 20:33:16 27° ENE 20:33:16 27° ENE 20:35:00 10° NNE
CZ-2D R/B 3.3 20:29:20 10° SSE 20:33:08 61° ENE 20:36:59 10° N
Meteor 1-4 Rocket 2.3 20:29:55 10° S 20:33:23 79° E 20:36:52 10° NNE
Cosmos-2242 3.4 20:30:57 10° SSE 20:34:52 38° E 20:38:49 10° NNE
USA 215 3.8 20:29:17 10° ENE 20:35:07 34° SE 20:40:54 10° S
Cosmos 158 Rocket 4.2 20:32:01 10° N 20:37:01 48° ENE 20:40:55 17° SE
Resurs 01 Rocket 1.6 20:32:48 10° SSE 20:37:13 85° W 20:41:40 10° NNW
Cosmos 1805 3.5 20:33:23 10° SSW 20:37:16 73° W 20:41:11 10° N
RESURS DK-1 4.3 20:34:38 10° NW 20:38:17 31° WSW 20:41:55 10° S
Meteor 1-21 Rocket 4.3 20:32:52 10° N 20:38:42 65° E 20:44:32 10° SSE
FENGYUN 3A 4.4 20:37:15 10° S 20:42:32 56° W 20:47:51 10° NNW
Cosmos 2098 Rocket 4.4 20:35:45 10° S 20:42:58 82° E 20:50:36 10° N
Cosmos 1544 3.8 20:40:24 10° SSW 20:43:59 56° W 20:47:36 10° N
Cosmos 1605 Rocket 4.4 20:38:46 10° SSW 20:44:59 67° W 20:51:21 10° N
Lacrosse 5 3.8 20:41:48 10° W 20:46:11 28° NW 20:50:34 10° NNE
Cosmos 1833 Rocket 2.7 20:40:40 10° NNW 20:46:14 60° ENE 20:50:10 20° SE
Cosmos 2100 Rocket 4.1 20:41:53 10° SSE 20:47:59 54° E 20:54:10 10° NNE
Spot 2 Rocket 3.8 20:45:00 10° S 20:50:04 71° WSW 20:55:12 10° NNW
Cosmos 2278 Rocket 3.9 20:47:41 10° SW 20:52:51 35° WNW 20:58:02 10° N
Cosmos 1867 3.9 20:48:32 10° SW 20:53:57 70° WNW 20:59:25 10° NNE
Cosmos 1470 2.7 20:50:23 10° S 20:54:18 61° E 20:58:14 10° NNE
Cosmos 1733 3.1 20:54:12 10° S 20:58:00 64° E 21:01:52 10° NNE
BREEZE-M DEB (TANK) 2.9 20:55:40 10° SW 20:58:51 72° SE 21:09:01 10° ENE
ATLAS 5 CENTAUR R/B 1.7 20:55:00 10° SSW 20:59:38 89° ESE 21:04:42 10° NNE
Cosmos 1743 Rocket 4.0 20:57:03 10° N 21:01:15 39° ENE 21:01:43 38° E
Cosmos 1340 Rocket 2.8 21:02:37 10° N 21:06:36 60° E 21:07:16 51° ESE
Envisat 3.0 21:05:45 30° SE 21:08:12 63° ENE 21:13:14 10° N
SJ-11-01 4.3 21:07:56 38° SE 21:09:31 59° ENE 21:14:10 10° N
Cosmos 2297 4.4 21:04:11 10° SW 21:09:45 56° WNW 21:15:25 10° NNE
Cosmos 1802 Rocket 3.9 21:04:25 10° S 21:10:27 64° E 21:16:33 10° NNE
Cosmos 1184 Rocket 4.4 21:13:21 10° N 21:15:03 25° NNE 21:15:03 25° NNE
H-2A R/B 4.2 21:21:37 13° NE 21:21:37 13° NE 21:22:54 10° NNE
Cosmos 1408 Rocket 4.3 21:17:23 10° NNW 21:21:46 54° W 21:25:11 16° SSW
ERS-1 Rocket 3.2 21:23:19 47° ENE 21:23:26 47° ENE 21:28:16 10° N
SeaSat 1 4.4 21:20:02 10° SSW 21:24:07 26° WSW 21:28:14 10° NW
Cosmos 2082 Rocket 2.7 21:18:40 10° NNW 21:24:15 58° WSW 21:27:52 22° S
Cosmos 2061 Rocket 4.0 21:19:26 10° S 21:25:50 88° W 21:32:18 10° N
CZ-3 Stage 3 3.6 20:51:28 10° W 21:26:02 57° SSW 21:29:16 37° SE
Meteor 1-11 4.4 21:23:40 10° N 21:29:04 49° ENE 21:29:12 49° E
ARGOS 4.4 21:32:40 26° NE 21:32:40 26° NE 21:36:05 10° N
SL-14 R/B 4.5 21:28:10 10° N 21:30:24 32° NNE 21:30:24 32° NNE
Timation 2 Rocket 4.2 21:26:36 10° NNW 21:32:48 66° WSW 21:35:50 30° S
Meteor 1-16 Rocket 4.2 21:29:40 27° S 21:32:55 73° E 21:38:51 10° NNE
Cosmos 1842 Rocket 3.6 21:34:36 65° NNE 21:34:36 65° NNE 21:38:25 10° N
Cosmos 2151 4.2 21:30:12 10° N 21:32:37 29° NNE 21:32:37 29° NNE
Cosmos 1459 Rocket 4.3 21:30:29 10° SSW 21:36:42 66° W 21:42:51 10° N
Cosmos 1271 Rocket 4.3 21:33:01 10° SW 21:36:45 37° WNW 21:40:32 10° N
Helios 1B rocket 4.1 21:34:48 10° N 21:38:33 34° WNW 21:42:16 10° SW
Cosmos 2173 Rocket 4.5 21:37:41 10° SSW 21:43:45 59° W 21:49:57 10° N
Cosmos 1939 Rocket 3.4 21:44:15 58° W 21:44:15 58° W 21:48:21 10° NNW
YAOGAN 6 4.4 21:47:36 27° N 21:47:36 27° N 21:49:22 10° N
Cosmos 1864 Rocket 4.4 21:48:07 60° SSE 21:49:15 75° E 21:55:33 10° N
Lacrosse 5 rocket 3.0 21:56:05 10° NW 21:58:14 30° WNW 21:58:14 30° WNW
Cosmos 2251 Rocket 3.6 21:56:28 10° NNW 22:01:24 74° NW 22:01:24 74° NW
ISS -0.8 22:01:04 10° W 22:02:04 16° WNW 22:02:04 16° WNW
CZ-3B DEB 4.4 22:07:32 10° WNW 22:11:38 16° NNW 22:14:28 10° N
Cosmos 2369 Rocket 4.3 22:18:38 15° NNE 22:18:38 15° NNE 22:19:36 10° NNE
USA 215 3.5 22:11:52 10° NE 22:18:19 65° NW 22:24:45 10° WSW
Cosmos 1725 Rocket 4.5 22:23:25 48° WSW 22:24:40 57° W 22:30:46 10° N
SPOT 5 4.2 22:33:35 41° NNW 22:33:35 41° NNW 22:37:02 10° NNW
Terra 4.4 22:47:55 13° N 22:47:55 13° N 22:48:30 10° N
USA 267 3.9 22:50:51 47° N 22:50:51 47° N 22:55:57 10° NW
H-2A R/B 4.0 23:02:14 25° NNW 23:02:14 25° NNW 23:04:22 10° NNW
